EW5462 Weather Reports


Display with metric or nautical units.
time (UTC)temp
F
wind
direction
speed
MPH
gust
MPH
rain 1hr
in
rain 24hr
in
rain mn
in
humidity
%
barometer
mb
20260906134917 83 214 0.0 0.0 0.00 0.00 0.00 39 1008.6
20260906133916 83 0.0 0.0 0.00 0.00 0.00 39 1008.3
20260906132917 82 0.0 0.0 0.00 0.00 0.00 38 1008.2
20260906131917 82 0.0 0.0 0.00 0.00 0.00 38 1008.2
20260906130916 83 0.0 0.0 0.00 0.00 0.00 37 1008.1
20260906125917 83 0.0 0.0 0.00 0.00 0.00 37 1008.0
20260906124917 83 0.0 0.0 0.00 0.00 0.00 36 1007.9
20260906124217 83 0.0 0.0 0.00 0.00 0.00 37 1007.9
20260906123217 83 0.0 0.0 0.00 0.00 0.00 37 1007.9
20260906122216 84 0.0 0.0 0.00 0.00 0.00 36 1007.9
20260906121216 84 197 0.0 0.0 0.00 0.00 0.00 37 1007.9
20260906120217 84 0.0 0.0 0.00 0.00 0.00 37 1007.8
20260906115217 85 0.0 0.0 0.00 0.00 0.00 36 1007.9
20260906114517 84 0.0 0.0 0.00 0.00 0.00 36 1008.0
20260906113517 84 0.0 0.0 0.00 0.00 0.00 36 1007.9
20260906112518 85 0.0 0.0 0.00 0.00 0.00 35 1007.8
20260906111517 84 135 0.0 1.0 0.00 0.00 0.00 35 1007.9
20260906110516 85 120 3.0 4.0 0.00 0.00 0.00 35 1007.8
20260906105517 85 122 1.0 2.0 0.00 0.00 0.00 35 1007.8
20260906104517 85 112 2.0 3.0 0.00 0.00 0.00 35 1007.7
20260906103517 84 99 0.0 0.0 0.00 0.00 0.00 39 1007.7
20260906102517 85 0.0 0.0 0.00 0.00 0.00 35 1007.6
20260906101517 86 0.0 0.0 0.00 0.00 0.00 34 1007.6
20260906100516 86 0.0 0.0 0.00 0.00 0.00 34 1007.6
20260906095517 86 0.0 0.0 0.00 0.00 0.00 35 1007.7
20260906094517 86 0.0 0.0 0.00 0.00 0.00 34 1007.7
20260906093516 86 0.0 0.0 0.00 0.00 0.00 34 1007.7
20260906092517 85 0.0 0.0 0.00 0.00 0.00 35 1007.8
20260906091517 86 0.0 0.0 0.00 0.00 0.00 34 1007.8
20260906090516 85 0.0 0.0 0.00 0.00 0.00 35 1007.8
20260906085517 86 0.0 0.0 0.00 0.00 0.00 34 1007.9
20260906084517 86 0.0 0.0 0.00 0.00 0.00 34 1008.0
20260906083517 86 0.0 0.0 0.00 0.00 0.00 34 1008.1
20260906082517 86 0.0 0.0 0.00 0.00 0.00 34 1008.3
20260906081517 86 0.0 0.0 0.00 0.00 0.00 35 1008.2
20260906080517 86 0.0 0.0 0.00 0.00 0.00 35 1008.1
20260906075517 87 0.0 0.0 0.00 0.00 0.00 33 1008.1
20260906074516 87 0.0 0.0 0.00 0.00 0.00 33 1008.2
20260906073516 86 0.0 0.0 0.00 0.00 0.00 35 1008.3
20260906072516 87 0.0 0.0 0.00 0.00 0.00 34 1008.4
20260906071517 88 0.0 0.0 0.00 0.00 0.00 32 1008.4
20260906070517 88 0.0 0.0 0.00 0.00 0.00 32 1008.4
20260906065517 89 272 0.0 1.0 0.00 0.00 0.00 32 1008.4
20260906064517 89 251 0.0 2.0 0.00 0.00 0.00 31 1008.4
20260906063517 89 253 0.0 0.0 0.00 0.00 0.00 31 1008.4
20260906062516 89 256 3.0 4.0 0.00 0.00 0.00 31 1008.4
20260906061517 90 255 1.0 4.0 0.00 0.00 0.00 31 1008.4
20260906060517 90 0.0 0.0 0.00 0.00 0.00 30 1008.4
20260906055516 91 249 1.0 4.0 0.00 0.00 0.00 31 1008.4
20260906054516 91 253 2.0 5.0 0.00 0.00 0.00 32 1008.4
20260906053517 91 256 2.0 5.0 0.00 0.00 0.00 33 1008.5
20260906052517 91 256 1.0 3.0 0.00 0.00 0.00 36 1008.5
20260906051517 91 230 0.0 1.0 0.00 0.00 0.00 34 1008.4
20260906050517 92 0.0 0.0 0.00 0.00 0.00 34 1008.3
20260906045517 92 0.0 0.0 0.00 0.00 0.00 34 1008.3
20260906044516 91 0.0 0.0 0.00 0.00 0.00 34 1008.2
20260906043517 91 0.0 0.0 0.00 0.00 0.00 33 1008.2
20260906042516 92 0.0 0.0 0.00 0.00 0.00 33 1008.2
20260906041516 92 0.0 0.0 0.00 0.00 0.00 33 1008.1
20260906040516 91 0.0 0.0 0.00 0.00 0.00 33 1008.0
20260906035516 92 0.0 0.0 0.00 0.00 0.00 34 1008.0
20260906034517 93 0.0 0.0 0.00 0.00 0.00 33 1007.8
20260906033517 93 0.0 0.0 0.00 0.00 0.00 32 1007.7
20260906032517 93 0.0 0.0 0.00 0.00 0.00 32 1007.6
20260906031517 94 0.0 0.0 0.00 0.00 0.00 31 1007.4
20260906030516 95 0.0 0.0 0.00 0.00 0.00 29 1007.3
20260906025517 95 0.0 0.0 0.00 0.00 0.00 28 1007.2
20260906024517 96 0.0 0.0 0.00 0.00 0.00 28 1007.0
20260906023516 96 0.0 0.0 0.00 0.00 0.00 27 1007.0
20260906022517 97 0.0 0.0 0.00 0.00 0.00 27 1007.1
20260906021517 97 0.0 0.0 0.00 0.00 0.00 27 1007.1
20260906020716 97 0.0 0.0 0.00 0.00 0.00 28 1007.1
20260906015717 97 0.0 0.0 0.00 0.00 0.00 27 1007.1
20260906015317 97 0.0 0.0 0.00 0.00 0.00 27 1007.1
20260906014316 98 0.0 0.0 0.00 0.00 0.00 26 1007.1
20260906013317 98 0.0 0.0 0.00 0.00 0.00 26 1007.1
20260906012317 99 0.0 0.0 0.00 0.00 0.00 26 1007.1
20260906011317 99 277 1.0 2.0 0.00 0.00 0.00 25 1007.2
20260906010316 99 0.0 0.0 0.00 0.00 0.00 26 1007.2
20260906005317 100 147 0.0 0.0 0.00 0.00 0.00 28 1007.3
20260906004317 99 0.0 0.0 0.00 0.00 0.00 28 1007.3
20260906003317 99 0.0 0.0 0.00 0.00 0.00 29 1007.3
20260906002817 99 0.0 0.0 0.00 0.00 0.00 28 1007.2
20260906001816 99 0.0 0.0 0.00 0.00 0.00 28 1007.1
20260906001717 99 0.0 0.0 0.00 0.00 0.00 28 1007.1
20260906000716 99 0.0 0.0 0.00 0.00 0.00 28 1007.2
20260905235717 99 85 0.0 0.0 0.00 0.00 0.00 28 1007.3
20260905234717 99 0.0 0.0 0.00 0.00 0.00 28 1007.3
20260905233716 99 28 1.0 4.0 0.00 0.00 0.00 28 1007.3
20260905232716 99 0.0 0.0 0.00 0.00 0.00 28 1007.3
20260905231717 99 0.0 0.0 0.00 0.00 0.00 27 1007.4
20260905230717 99 290 3.0 5.0 0.00 0.00 0.00 27 1007.6
20260905225717 99 277 1.0 3.0 0.00 0.00 0.00 27 1007.6
20260905224716 99 233 4.0 6.0 0.00 0.00 0.00 28 1007.7
20260905223717 98 0.0 0.0 0.00 0.00 0.00 29 1007.8
20260905222717 98 0.0 0.0 0.00 0.00 0.00 31 1007.9
20260905221717 98 296 4.0 6.0 0.00 0.00 0.00 31 1008.1
20260905220716 98 239 1.0 6.0 0.00 0.00 0.00 31 1008.2
20260905215716 97 250 2.0 5.0 0.00 0.00 0.00 32 1008.3
20260905214717 98 233 2.0 4.0 0.00 0.00 0.00 32 1008.6
20260905213717 98 251 3.0 4.0 0.00 0.00 0.00 32 1008.7
20260905212716 98 242 2.0 4.0 0.00 0.00 0.00 32 1008.7
20260905212017 98 0.0 0.0 0.00 0.00 0.00 32 1008.8
20260905211017 98 245 3.0 5.0 0.00 0.00 0.00 32 1008.9
20260905210017 99 255 0.0 3.0 0.00 0.00 0.00 31 1009.0
20260905205017 98 235 0.0 1.0 0.00 0.00 0.00 31 1009.1
20260905204016 98 0.0 0.0 0.00 0.00 0.00 31 1009.1
20260905203017 99 316 3.0 6.0 0.00 0.00 0.00 30 1009.2
20260905202017 98 0.0 0.0 0.00 0.00 0.00 31 1009.3
20260905201016 98 0.0 0.0 0.00 0.00 0.00 31 1009.4
20260905200017 99 0.0 0.0 0.00 0.00 0.00 31 1009.5
20260905195017 97 0.0 0.0 0.00 0.00 0.00 32 1009.6
20260905194017 97 0.0 0.0 0.00 0.00 0.00 32 1009.7
20260905193016 98 0.0 0.0 0.00 0.00 0.00 32 1009.8
20260905192017 97 342 0.0 1.0 0.00 0.00 0.00 32 1009.9
20260905191017 95 0.0 0.0 0.00 0.00 0.00 33 1010.1
20260905190016 97 0.0 0.0 0.00 0.00 0.00 33 1010.2
20260905185017 96 128 0.0 1.0 0.00 0.00 0.00 33 1010.2
20260905184017 96 0.0 0.0 0.00 0.00 0.00 33 1010.3
20260905183016 99 0.0 0.0 0.00 0.00 0.00 31 1010.4
20260905182016 97 129 0.0 2.0 0.00 0.00 0.00 34 1010.5
20260905181017 96 0.0 0.0 0.00 0.00 0.00 33 1010.6
20260905180017 96 22 1.0 3.0 0.00 0.00 0.00 28 1010.6
20260905175017 95 11 3.0 4.0 0.00 0.00 0.00 26 1010.8
20260905174017 94 12 2.0 5.0 0.00 0.00 0.00 24 1010.7
20260905173016 93 299 1.0 4.0 0.00 0.00 0.00 24 1010.7
20260905172017 93 49 1.0 4.0 0.00 0.00 0.00 24 1010.6
20260905171017 92 0.0 0.0 0.00 0.00 0.00 23 1010.7
20260905170017 92 348 4.0 5.0 0.00 0.00 0.00 21 1010.7
20260905165817 92 358 1.0 4.0 0.00 0.00 0.00 22 1010.7
20260905164817 91 32 1.0 4.0 0.00 0.00 0.00 22 1010.6
20260905163816 89 13 1.0 3.0 0.00 0.00 0.00 22 1010.6
20260905162816 88 338 2.0 5.0 0.00 0.00 0.00 25 1010.7
20260905161817 88 355 0.0 2.0 0.00 0.00 0.00 24 1010.6
20260905160817 87 194 0.0 0.0 0.00 0.00 0.00 25 1010.6
20260905155816 87 358 0.0 1.0 0.00 0.00 0.00 25 1010.4
20260905154817 88 56 2.0 5.0 0.00 0.00 0.00 24 1010.5
20260905153817 87 0.0 0.0 0.00 0.00 0.00 22 1010.6
20260905152817 87 296 0.0 0.0 0.00 0.00 0.00 23 1010.5
20260905151816 87 0.0 0.0 0.00 0.00 0.00 21 1010.3
20260905150816 87 0.0 0.0 0.00 0.00 0.00 21 1010.1
20260905145817 87 0.0 0.0 0.00 0.00 0.00 21 1010.0
20260905144817 86 0.0 0.0 0.00 0.00 0.00 23 1009.9
20260905143816 86 252 0.0 0.0 0.00 0.00 0.00 23 1009.9
20260905142816 85 274 0.0 1.0 0.00 0.00 0.00 24 1009.7
20260905141817 85 0.0 0.0 0.00 0.00 0.00 23 1009.6
20260905140817 85 0.0 0.0 0.00 0.00 0.00 23 1009.4
20260905135816 85 0.0 0.0 0.00 0.00 0.00 22 1009.4